Location: Bethune
(34.4150°N, 80.3490°W)
Time: 08:59:56
(UTC-05:00)

ISS - Visible Passes

Search period start: 20 February 2018 00:00
Search period end: 02 March 2018 00:00
Orbit: 403 x 407 km, 51.6° (Epoch: 21 February)

Date Brightness Start Highest point End Pass type
(mag) Time Alt. Az. Time Alt. Az. Time Alt. Az.
25 Feb -1.7 05:48:27 10° S 05:51:16 27° SE 05:54:06 10° ENE visible
26 Feb -0.9 04:57:55 11° SSE 04:59:11 13° SE 05:00:47 10° E visible
27 Feb -3.9 05:41:20 26° SW 05:43:03 83° SE 05:46:19 10° NE visible
28 Feb -1.8 04:51:47 28° E 04:51:47 28° E 04:53:52 10° ENE visible
28 Feb -2.2 06:24:54 10° W 06:27:23 20° NNW 06:29:53 10° NNE visible
01 Mar -3.1 05:34:44 34° NW 05:34:57 35° NW 05:37:59 10° NNE visible
